METEOR 2-5 DEB

Satellite information

Favourite Embed

Satellite Type and Status

DEBRISIN ORBIT

Key statistics

Satellite METEOR 2-5 DEB at a glance.

Uptime

16789

Days in orbit

Revolutions

≈ 14.3

Per day

Orbit

LEO

Low Earth Orbit

Inclination

81.2

Latest

Satellite identification and parameters

Extended collection of information and parameters for METEOR 2-5 DEB.

Object identification

Identified? True

Debris? True

Object name: METEOR 2-5 DEB

International designator: 1979-095CM

Object number (NORAD): 40214

Object ID (CCSDS): 40214

Country: COMMONWEALTH OF INDEPENDENT STATES (CIS)

Current information (Y/N): Y

RCS size: SMALL

Orbital parameters

Period: 100.598 minutes

Inclination: 81.2063 deg

SMA: 7165.073 km

Apoapsis: 796.424 km

Periapsis: 777.452 km

RAAN: 42.7065 deg

Eccentricy: 0.0013239

Argument of periapsis: 46.858 deg

Mean anomaly: 313.3707 deg

Mean motion: 14.31435628 rev/day

Mean motion (dot): 0.00003174 rev/day2

B* drag term: 0.0011905 1/REarth

Two-line elements (TLE)

Creation date: Oct. 17, 2025, 6:56 a.m.

Reference frame: TEME

Reference center: EARTH

Epoch: Oct. 16, 2025, 2:31 p.m. UTC

TLE line 0: 0 METEOR 2-5 DEB

TLE line 1: 1 40214U 79095CM 25289.60505928 .00003174 00000-0 11905-2 0 9995

TLE line 2: 2 40214 81.2063 42.7065 0013239 46.8580 313.3707 14.31435628572191

Live tracking on map

Real-time ground track for satellite METEOR 2-5 DEB.

In-orbit conjunctions

A list of the most updated potential collisions computed for object METEOR 2-5 DEB.

Target Orbit TCA Probability of collision Miss distance Type
CZ-6A DEB SSO 2025-09-10 02:18:57 0.0001266525 32.0 (m) DEBRIS
RITE TARGET 1 SSO 2025-04-06 20:11:23 0.0008582946 181.0 (m) PAYLOAD
RADARSAT SSO 2025-03-14 16:11:29 0.001121781 107.0 (m) PAYLOAD
CZ-6A DEB SSO 2024-09-13 23:45:43 0.0004439317 43.0 (m) DEBRIS

Associated space launch

Second generation soviet meteorological satellite

METEOR 2-5 DEB was lifted into orbit during the mission ‘Vostok 8A92M | Meteor-2 5’, on board a Vostok 8A92M space rocket.

The launch took place on Oct. 31, 1979, 9:25 a.m. from 43/4 (43R).

For more information about the launch, click the button.

Launch to space Vostok 8A92M | Meteor-2 5
Vostok 8A92M | Meteor-2 5

Agency: N/A

Status: Launch Successful

Launch date: Oct. 31, 1979, 9:25 a.m. UTC

Rocket: Vostok 8A92M

Launch pad: 43/4 (43R)

Location: Plesetsk Cosmodrome, Russian Federation

...

Latest news about this satellite

There are no fresh news available about this satellite. Check back as we update our databases every day.


Newsletter sign-up

Weekly statistics, charts and insights to help you stay on top of the space industry.